Location: Carrières
(48.9495°N, 2.0407°E)
Time: 21:04:10
(UTC+00:00)

Courier 1B Rocket - Pass Details

Date: 13 April 2024
Orbit: 920 x 1201 km, 28.2° (Epoch: 25 May)

Event Time Altitude Azimuth Distance (km) Brightness Sun altitude
Rises 08:54:47 0° 230° (SW) 3,662 7.9 35.8°
Reaches altitude 10° 09:00:19 10° 192° (SSW) 2,651 7.6 36.6°
Maximum altitude 09:01:23 10° 182° (S) 2,611 7.7 36.7°
Drops below altitude 10° 09:02:26 10° 172° (S) 2,633 7.9 36.9°
Sets 09:07:48 0° 134° (SE) 3,547 8.9 37.6°
